Simultaneous Nadir Overpasses (SNOs) Predictions

Prediction of SNOs between AQUA and METOP-C Satellite Orbit:

Table of predicted SNOs for the next 14.0 days since TLE Epoch: 3/27/2020
Index Date (AQUA) Time (AQUA) Lat,Lon (AQUA) SZA (AQUA ) Date (METOP-C) Time (METOP-C) Lat,Lon (METOP-C) SZA (METOP-C ) Distance(km) Time Diff (sec)
1 03/28/2020 12:25:42 73.68, -11.81 70.41 03/28/2020 12:24:29 73.71, -11.84 70.45 3.01 73
2 03/28/2020 13:15:09 -73.76, 155.65 109.51 03/28/2020 13:15:09 -73.76, 155.61 109.52 1.27 0
3 03/28/2020 14:04:38 73.83, -36.87 70.55 03/28/2020 14:05:48 73.84, -36.87 70.55 0.48 70
4 03/31/2020 07:59:58 73.71, 54.57 69.34 03/31/2020 07:58:52 73.73, 54.61 69.37 2.70 66
5 03/31/2020 08:49:25 -73.79,-137.97 110.59 03/31/2020 08:49:32 -73.78,-137.93 110.60 1.58 7
6 03/31/2020 09:38:57 74.01, 29.16 69.65 03/31/2020 09:40:08 74.00, 29.94 69.60 23.87 71
7 04/03/2020 03:34:12 73.69, 121.05 68.23 04/03/2020 03:33:15 73.70, 120.95 68.25 3.33 57
8 04/03/2020 04:23:39 -73.77, -71.49 111.70 04/03/2020 04:23:54 -73.80, -71.48 111.67 3.50 15
9 04/03/2020 05:13:17 74.30, 94.93 68.87 04/03/2020 05:14:24 74.32, 97.13 68.81 66.36 67
10 04/05/2020 23:08:28 73.72,-172.60 67.20 04/05/2020 23:07:38 73.71,-172.61 67.19 1.43 50
11 04/05/2020 23:57:55 -73.81, -5.14 112.73 04/05/2020 23:58:17 -73.82, -5.03 112.73 3.67 22
12 04/08/2020 18:42:43 73.72,-106.15 66.13 04/08/2020 18:42:01 73.73,-106.17 66.15 1.28 42
13 04/08/2020 19:32:10 -73.80, 61.32 113.80 04/08/2020 19:32:41 -73.79, 61.30 113.82 1.43 31




NCC Satellite Simultaneous Nadir Overpasses (SNOs) Prediction Service
